Charlotte, MI

6:02 PM EDT on August 21, 2017 (GMT -0400)
Charlotte

Weather History for KFPK - February, 2013

Change the Weather History Date:

Wednesday, February 13, 2013

  Actual Average (KLAN) Record (KLAN)
Temperature  
Mean Temperature 30 °F -  
Max Temperature 40 °F 31 °F 59 °F (1876)
Min Temperature 21 °F 15 °F -25 °F (1875)
Degree Days  
Heating Degree Days 34    
Moisture  
Dew Point 24 °F    
Average Humidity 80    
Maximum Humidity 97    
Minimum Humidity 57    
Precipitation  
Precipitation 0.00 in - - ()
Sea Level Pressure  
Sea Level Pressure 29.77 in    
Wind  
Wind Speed 5 mph (SW)    
Max Wind Speed 10 mph    
Max Gust Speed -    
Visibility 9 miles    
Events      
Averages and records for this station are not official NWS values.
T = Trace of Precipitation, MM = Missing Value Source: NWS Daily Summary

Daily Weather History Graph

Daily Weather History Graph

Search for Another Location

Airport or City:

Trip Planner

Search our weather history database for the weather conditions in past years. The results will help you decide how hot, cold, wet, or windy it might be!

Date:

Astronomy

Feb. 13, 2013 Rise Set
Actual Time 7:38 AM EST 6:09 PM EST
Civil Twilight 7:09 AM EST 6:38 PM EST
Nautical Twilight 6:36 AM EST 7:11 PM EST
Astronomical Twilight 6:03 AM EST 7:43 PM EST
Moon 9:01 AM EST (2/13) 10:17 PM EST (2/13)
Length of Visible Light 11h 28m
Length of Day
10h 30m
Waxing Crescent, 13% of the Moon is Illuminated
Feb 13
Waxing Crescent
Feb 17
First Quarter
Feb 25
Full
Mar 4
Last Quarter
Mar 11
New

Hourly Weather History & Observations

Time (EST) Temp. Windchill Dew Point Humidity Pressure Visibility Wind Dir Wind Speed Gust Speed Precip Events Conditions
12:15 AM 27.3 °F 19.1 °F 21.9 °F 80% 29.90 in 10.0 mi West 8.1 mph - N/A   Overcast
12:35 AM 27.3 °F 20.9 °F 22.1 °F 81% 29.89 in 10.0 mi West 5.8 mph - N/A   Overcast
12:55 AM 27.1 °F 18.9 °F 22.1 °F 81% 29.89 in 10.0 mi WSW 8.1 mph - N/A   Overcast
1:15 AM 27.1 °F 20.7 °F 22.1 °F 81% 29.89 in 10.0 mi WSW 5.8 mph - N/A   Overcast
1:35 AM 27.0 °F 19.5 °F 21.7 °F 81% 29.88 in 10.0 mi West 6.9 mph - N/A   Overcast
1:55 AM 27.0 °F 20.5 °F 21.9 °F 81% 29.88 in 10.0 mi West 5.8 mph - N/A   Overcast
2:15 AM 26.8 °F 19.3 °F 21.9 °F 82% 29.87 in 10.0 mi West 6.9 mph - N/A   Overcast
2:35 AM 26.6 °F 19.1 °F 21.9 °F 82% 29.87 in 10.0 mi West 6.9 mph - N/A   Overcast
2:55 AM 26.6 °F 21.2 °F 21.9 °F 82% 29.86 in 10.0 mi West 4.6 mph - N/A   Overcast
3:15 AM 26.6 °F 19.1 °F 22.1 °F 83% 29.86 in 10.0 mi WSW 6.9 mph - N/A   Overcast
3:35 AM 26.4 °F 19.8 °F 21.9 °F 83% 29.86 in 10.0 mi WNW 5.8 mph - N/A   Overcast
3:55 AM 26.4 °F 20.9 °F 22.1 °F 84% 29.85 in 10.0 mi West 4.6 mph - N/A   Overcast
4:15 AM 26.4 °F 19.8 °F 22.1 °F 84% 29.85 in 10.0 mi West 5.8 mph - N/A   Overcast
4:35 AM 26.4 °F 20.9 °F 22.1 °F 84% 29.84 in 10.0 mi WSW 4.6 mph - N/A   Overcast
4:55 AM 26.4 °F 20.9 °F 22.3 °F 84% 29.84 in 10.0 mi West 4.6 mph - N/A   Overcast
5:15 AM 26.4 °F 19.8 °F 22.1 °F 84% 29.84 in 10.0 mi SW 5.8 mph - N/A   Overcast
5:35 AM 26.2 °F 22.1 °F 22.1 °F 84% 29.84 in 10.0 mi SW 3.5 mph - N/A   Overcast
5:55 AM 26.2 °F 22.1 °F 22.1 °F 84% 29.83 in 10.0 mi SW 3.5 mph - N/A   Overcast
6:15 AM 26.2 °F 20.7 °F 22.5 °F 86% 29.82 in 10.0 mi South 4.6 mph - N/A   Overcast
6:35 AM 25.7 °F 20.1 °F 22.1 °F 86% 29.82 in 10.0 mi South 4.6 mph - N/A   Overcast
6:55 AM 24.6 °F 20.3 °F 21.2 °F 87% 29.81 in 10.0 mi South 3.5 mph - N/A   Overcast
7:15 AM 24.4 °F - 21.2 °F 87% 29.80 in 10.0 mi Calm Calm - N/A   Scattered Clouds
7:35 AM 22.5 °F - 20.3 °F 91% 29.79 in 7.0 mi Calm Calm - N/A   Clear
7:55 AM 21.9 °F - 20.1 °F 93% 29.79 in 5.0 mi Calm Calm - N/A   Clear
8:15 AM 22.1 °F - 20.5 °F 93% 29.79 in 5.0 mi Calm Calm - N/A   Clear
8:35 AM 23.2 °F 18.7 °F 21.6 °F 94% 29.79 in 5.0 mi South 3.5 mph - N/A   Clear
8:55 AM 25.9 °F 19.2 °F 22.6 °F 88% 29.79 in 7.0 mi South 5.8 mph - N/A   Clear
9:15 AM 27.3 °F 20.9 °F 23.0 °F 84% 29.79 in 7.0 mi SSW 5.8 mph - N/A   Scattered Clouds
9:35 AM 27.5 °F 20.2 °F 23.0 °F 83% 29.78 in 7.0 mi SSW 6.9 mph - N/A   Mostly Cloudy
9:55 AM 28.2 °F 22.0 °F 23.0 °F 81% 29.78 in 7.0 mi SSW 5.8 mph - N/A   Overcast
10:15 AM 28.4 °F 22.2 °F 23.0 °F 80% 29.78 in 7.0 mi South 5.8 mph - N/A   Overcast
10:35 AM 28.8 °F 22.6 °F 23.0 °F 79% 29.78 in 10.0 mi South 5.8 mph - N/A   Overcast
10:55 AM 29.7 °F 23.7 °F 23.5 °F 78% 29.79 in 10.0 mi South 5.8 mph - N/A   Overcast
11:15 AM 31.1 °F 22.4 °F 24.3 °F 76% 29.78 in 10.0 mi SSE 10.4 mph - N/A   Mostly Cloudy
11:35 AM 31.8 °F 23.9 °F 24.1 °F 73% 29.78 in 10.0 mi South 9.2 mph - N/A   Scattered Clouds
11:55 AM 32.5 °F 25.5 °F 25.0 °F 74% 29.78 in 10.0 mi South 8.1 mph - N/A   Clear
12:15 PM 33.1 °F 26.1 °F 25.0 °F 72% 29.77 in 10.0 mi SSW 8.1 mph - N/A   Clear
12:35 PM 34.2 °F 26.2 °F 25.9 °F 72% 29.76 in 10.0 mi South 10.4 mph - N/A   Clear
12:55 PM 35.4 °F 28.4 °F 26.4 °F 70% 29.75 in 10.0 mi South 9.2 mph - N/A   Clear
1:15 PM 35.6 °F 29.9 °F 26.4 °F 69% 29.74 in 10.0 mi South 6.9 mph - N/A   Clear
1:35 PM 36.7 °F 30.5 °F 26.8 °F 67% 29.72 in 10.0 mi SSW 8.1 mph - N/A   Clear
1:55 PM 37.4 °F 31.4 °F 26.4 °F 65% 29.71 in 10.0 mi SW 8.1 mph - N/A   Clear
2:15 PM 37.8 °F 31.3 °F 26.4 °F 64% 29.71 in 10.0 mi SW 9.2 mph - N/A   Clear
2:35 PM 38.1 °F 31.2 °F 26.6 °F 63% 29.70 in 10.0 mi SSW 10.4 mph - N/A   Scattered Clouds
2:55 PM 39.6 °F 33.0 °F 26.8 °F 60% 29.69 in 10.0 mi SW 10.4 mph - N/A   Clear
3:15 PM 39.4 °F 32.7 °F 26.8 °F 61% 29.69 in 10.0 mi SSW 10.4 mph - N/A   Clear
3:35 PM 39.2 °F 33.6 °F 26.6 °F 61% 29.69 in 10.0 mi SSW 8.1 mph - N/A   Clear
3:55 PM 40.1 °F 34.1 °F 27.0 °F 59% 29.69 in 10.0 mi SW 9.2 mph - N/A   Clear
4:15 PM 39.9 °F 34.5 °F 26.8 °F 59% 29.69 in 10.0 mi SW 8.1 mph - N/A   Clear
4:35 PM 40.1 °F 34.7 °F 27.0 °F 59% 29.70 in 10.0 mi WSW 8.1 mph - N/A   Clear
4:55 PM 40.1 °F 36.1 °F 26.1 °F 57% 29.70 in 10.0 mi WSW 5.8 mph - N/A   Clear
5:15 PM 40.1 °F 36.1 °F 26.1 °F 57% 29.70 in 10.0 mi West 5.8 mph - N/A   Scattered Clouds
5:35 PM 38.3 °F 34.8 °F 25.7 °F 61% 29.70 in 10.0 mi West 4.6 mph - N/A   Scattered Clouds
5:55 PM 36.5 °F - 25.2 °F 64% 29.70 in 10.0 mi Calm Calm - N/A   Clear
6:15 PM 36.0 °F - 25.3 °F 65% 29.71 in 10.0 mi Calm Calm - N/A   Clear
6:35 PM 33.3 °F - 25.0 °F 72% 29.71 in 10.0 mi Calm Calm - N/A   Mostly Cloudy
6:55 PM 30.7 °F - 25.2 °F 80% 29.71 in 10.0 mi Calm Calm - N/A   Scattered Clouds
7:15 PM 30.6 °F - 25.3 °F 81% 29.72 in 10.0 mi Calm Calm - N/A   Mostly Cloudy
7:35 PM 30.0 °F - 25.2 °F 82% 29.73 in 10.0 mi Calm Calm - N/A   Overcast
7:55 PM 29.5 °F - 25.3 °F 85% 29.73 in 10.0 mi Calm Calm - N/A   Scattered Clouds
8:15 PM 27.7 °F - 25.0 °F 90% 29.73 in 7.0 mi Calm Calm - N/A   Scattered Clouds
8:35 PM 27.3 °F - 25.3 °F 92% 29.73 in 7.0 mi Calm Calm - N/A   Scattered Clouds
8:55 PM 27.5 °F - 25.2 °F 91% 29.72 in 7.0 mi Calm Calm - N/A   Clear
9:15 PM 25.3 °F - 23.9 °F 94% 29.72 in 5.0 mi Calm Calm - N/A   Clear
9:35 PM 26.2 °F - 25.2 °F 96% 29.73 in - Calm Calm - N/A   Unknown
9:55 PM 25.9 °F - 24.1 °F 93% 29.72 in 7.0 mi Calm Calm - N/A   Clear
10:15 PM 25.3 °F - 24.3 °F 96% 29.72 in 5.0 mi Calm Calm - N/A   Clear
10:35 PM 24.4 °F - 23.0 °F 94% 29.72 in 5.0 mi Calm Calm - N/A   Clear
10:55 PM 24.1 °F - 23.4 °F 97% 29.72 in 5.0 mi Calm Calm - N/A   Clear
11:15 PM 24.4 °F - 23.5 °F 96% 29.72 in 7.0 mi Calm Calm - N/A   Clear
11:35 PM 25.0 °F - 23.7 °F 95% 29.72 in 5.0 mi Calm Calm - N/A   Clear
11:55 PM 23.5 °F - 22.3 °F 95% 29.72 in 7.0 mi Calm Calm - N/A   Clear